Weather in Kalashnikovo

Russia / Tver Oblast     57°16′53″N   35°13′34″E
temp.,
°C
wind,
m/s
gust,
m/s
humid.,
%
clouds,
%
prec.,
mm/h
press.,
hPa
HPBL,
m
13 april, tue
tue1300:00+9se3981100 0.0 1026281
03:00+7se3893100 0.0 1025208
06:00+7se2796100 0.0 1023164
09:00+11sse3682100 0.0 1023289
12:00+16s4760100 0.0 1022742
15:00+19ssw4849100 0.0 10211392
18:00+17s3759100 0.0 1020244
21:00+12sse3107477 0.0 1020199
14 april, wed
wed1400:00+10sse3127676 0.0 1020258
03:00+8sse278284 0.0 1019117
06:00+8sse2782100 0.0 1019178
09:00+13s410667 0.0 1018449
12:00+17ssw5856100 0.0 10171351
15:00+17sw475380 0.1 10171406
18:00+16ssw485896 0.2 1017666
21:00+12s2380100 0.4 101867
15 april, thu
thu1500:00+11nnw2592100 0.9 1018124
03:00+9ne3798100 0.9 1018211
06:00+9ne3997100 0.0 1018392
09:00+10ne4789100 0.1 1019482
12:00+11ne468097 0.0 1020665
15:00+10ne5877100 0.0 1020767
18:00+8ne51084100 0.0 1021648
21:00
16 april, fri
fri1600:00+5ne4128994 0.0 1023477
03:00+4ne5129180 0.0 1023453
06:00+3ne5139358 0.0 1023437
09:00+6ne5107974 0.0 1024538
12:00+10ne586167 0.0 1024871
15:00+11ne67525 0.0 10241121
18:00+9ne594814 0.0 1025965
21:00+5ne5135799 0.0 1028538
17 april, sat
sat1700:00+4ne413695 0.0 1028446
03:00+3ne412765 0.0 1028345
06:00+2ne4127797 0.0 1030327
09:00+6ene51057100 0.0 1030618
12:00+10ene573963 0.0 10301284
15:00+11ne57395 0.0 10311507
18:00+10ne47502 0.0 10311262
21:00+5ne311650 0.0 1032358